User: anonymous   Login
Location: Chiroubles
(46.1812°N, 4.6660°E)
Time: 16:23:41
(UTC+00:00)
Language:

Spot 2 Rocket - Orbit

View from above orbital plane
View from above orbital plane
View from above satellite
View from above satellite

Ground track
Ground track

The orbit data is extracted from the following two-line orbital elements,

1 20443U 90005H   20292.80252158 -.00000002 +00000-0 +13976-4 0  9996
2 20443 098.5629 354.3430 0009889 341.6699 018.4131 14.38101218609842
Epoch (UTC): 18 October 2020 19:15:37
Eccentricity: 0.0009889
inclination: 98.5629°
perigee height: 758 km
apogee height: 772 km
right ascension of ascending node: 354.3430°
argument of perigee: 341.6699°
revolutions per day: 14.38101218
mean anomaly at epoch: 18.4131°
orbit number at epoch: 60984

The dashed part of the orbit path shows where the satellite is in the earth's shadow,  

DLR